Location: Dumpton Point
(51.3500°N, 1.4433°E)
Time: 22:30:02
(UTC+00:00)

Cosmos 1607 - Pass Details

Date: 09 April 2020
Orbit: 917 x 985 km, 65.0° (Epoch: 22 May)

Event Time Altitude Azimuth Distance (km) Brightness Sun altitude
Exits shadow 23:12:03 78° 289° (WNW) 962 3.9 -29.9°
Maximum altitude 23:12:14 79° 313° (NW) 960 3.9 -29.9°
Drops below altitude 10° 23:18:31 10° 41° (NE) 2,684 6.7 -30.1°
Sets 23:21:06 0° 42° (NE) 3,643 7.5 -30.2°
